Regional Weather Roundup
Issued by NWS

Home | Current Version | Previous Version | Text Only | Print | Product List | Glossary Off
Versions: 1 2 3 4 5 6 7 8 9 10 11 12 13 14 15 16 17 18 19 20 21 22 23 24 25 26 27 28 29 30 31 32 33 34 35 36 37 38 39 40 41 42 43 44 45 46 47 48 49 50

000
ASUS43 KMKX 251700
RWRWI

WISCONSIN REGIONAL WEATHER ROUNDUP
NATIONAL WEATHER SERVICE MILWAUKEE/SULLIVAN WI
1200 PM CDT TUE APR 25 2017

NOTE: "FAIR" INDICATES FEW OR NO CLOUDS BELOW 12,000 FEET WITH NO
SIGNIFICANT WEATHER AND/OR OBSTRUCTIONS TO VISIBILITY.

WIZ001-002-006>008-014>016-023>028-251800-
NORTHWEST WISCONSIN

CITY           SKY/WX    TMP DP  RH WIND       PRES   REMARKS
SUPERIOR ARPT  CLOUDY    47  40  77 E10       29.62R
ASHLAND        CLOUDY    53  39  59 NE7       29.60R
HAYWARD        CLOUDY    65  36  34 SW3       29.57R
SIREN          CLOUDY    62  43  51 CALM      29.56S
CUMBERLAND     CLOUDY    66  36  32 S5        29.55S
RICE LAKE      CLOUDY    69  36  29 S8        29.56R
CHETEK         CLOUDY    69  42  38 SE12      29.54F
LADYSMITH      CLOUDY    67  42  39 SE9       29.59S
EAU CLAIRE     NOT AVBL
MENOMONIE      MOSUNNY   70  38  30 SE7       29.53F
NEW RICHMOND   PTSUNNY   66  38  35 S7        29.54R
OSCEOLA        CLOUDY    65  41  40 S8        29.56S
$$

WIZ003>005-009-010-017-018-251800-
NORTH CENTRAL WISCONSIN

CITY           SKY/WX    TMP DP  RH WIND       PRES   REMARKS
MANITOWISH WTR CLOUDY    66  37  34 S10G16    29.61R
ARBOR VITAE    SUNNY     71  39  30 S13       29.61S
WOODRUFF       SUNNY     71  39  30 S13       29.61S
RHINELANDER    CLOUDY    69  39  33 SE13      29.63S
EAGLE RIVER    SUNNY     69  32  26 S8G16     29.62S
LAND O LAKES   PTSUNNY   68  32  26 S8        29.64S
PHILLIPS       CLOUDY    69  40  35 SE8       29.58S
TOMAHAWK       MOSUNNY   67  39  35 SE3       29.62S
MEDFORD        MOSUNNY   64  42  45 S8        29.60S
MERRILL        SUNNY     67  41  38 SE9       29.62S
$$

WIZ029-030-035-036-043>047-251800-
CENTRAL WISCONSIN

CITY           SKY/WX    TMP DP  RH WIND       PRES   REMARKS
WAUSAU         MOSUNNY   69  42  37 S10       29.59F
MOSINEE        PTSUNNY   70  43  37 S10       29.62F
MARSHFIELD     MOSUNNY   70  41  34 S8        29.58F
STEVENS POINT  CLOUDY    67  42  39 SE12      29.62F
WAUPACA        SUNNY     73  44  35 S10G20    29.62F
WAUTOMA        MOSUNNY   71  44  37 S12       29.61F
WISC RAPIDS    MOSUNNY   73  40  30 VRB6G16   29.60
CAMP DOUGLAS   NOT AVBL
$$

WIZ011>013-019>022-031-037>040-048>050-251800-
NORTHEAST WISCONSIN

CITY           SKY/WX    TMP DP  RH WIND       PRES   REMARKS
ANTIGO         PTSUNNY   67  42  39 S14G20    29.64S
SHAWANO        SUNNY     71  46  40 SE9       29.64F
OCONTO         SUNNY     62  48  60 SE9G17    29.68S
STURGEON BAY   SUNNY     59  49  69 S21G30    29.70R
GREEN BAY      SUNNY     68  52  56 SE12      29.65F
MANITOWOC      NOT AVBL
APPLETON       MOSUNNY   68  41  37 SE14G20   29.64S
CLINTONVILLE   SUNNY     70  43  37 SE13      29.63F
OSHKOSH        SUNNY     72  47  40 S13G22    29.63F
$$

WIZ032>034-041-042-053>061-251800-
SOUTHWEST WISCONSIN

CITY           SKY/WX    TMP DP  RH WIND       PRES   REMARKS
LA CROSSE      CLOUDY    71  43  36 S8        29.55S
SPARTA         CLOUDY    71  41  33 S5G16     29.57S
VIROQUA        CLOUDY    69  39  34 SE9       29.58S
BOSCOBEL       PTSUNNY   72  42  34 S5        29.58F
PRAIRIE DU CHI PTSUNNY   69  40  35 E10       29.56S
PLATTEVILLE    CLOUDY    70  44  40 SE13      29.61S
$$

WIZ056-057-062-063-064-067-068-251800-
SOUTH CENTRAL WISCONSIN

CITY           SKY/WX    TMP DP  RH WIND       PRES   REMARKS
REEDSBURG      PTSUNNY   69  43  38 S8        29.60F
BARABOO/DELLS  PTSUNNY   69  41  36 SE9G18    29.61F
LONE ROCK      NOT AVBL
MINERAL POINT  CLOUDY    68  45  42 SE10      29.61S
MADISON        PTSUNNY   71  42  35 S14       29.61F
MIDDLETON      MOSUNNY   71  40  32 S12       29.62F
WATERTOWN      CLOUDY    71  46  40 S13G20    29.64F
MONROE         MOSUNNY   70  41  35 S18       29.62F
JANESVILLE     PTSUNNY   73  41  31 S14G20    29.63F
$$

WIZ051-052-058>065-066-070>072-251800-
SOUTHEAST WISCONSIN

CITY           SKY/WX    TMP DP  RH WIND       PRES   REMARKS
MILWAUKEE      PTSUNNY   63  51  65 SE14      29.68S
WAUKESHA       SUNNY     70  43  37 S12G21    29.66F
MILWAUKEE/TIMM SUNNY     72  43  35 S14       29.67F
RACINE         MOSUNNY   60  49  66 S16       29.70S
KENOSHA        CLOUDY    70  53  54 SE13      29.67F
FOND DU LAC    SUNNY     72  47  40 S15G21    29.64F
SHEBOYGAN      SUNNY     58  51  78 SE12      29.69F
WEST BEND      SUNNY     68  50  52 E7        29.66F
JUNEAU         SUNNY     70  45  40 S13G18    29.65F
$$

LSZ147-162-251800-
LAKE SUPERIOR

STATION/POSITION TIME  TEMP    WIND        PRES    WAVE
                       AIR SEA DIR/SP/G            HT/PER
                 (UTC) (F)     (DEG/KT/KT) (MB)    (FT/S)
DEVILS ISLAND    1600   39      80/  8/ 10 1003.3R
PORT WING        1440   38      30/ 13/ 16 1002.7
SAXON HARBOR     1630   43     310/  4/  4 1002.4S
$$

LMZ867-665-643>646-251800-
LAKE MICHIGAN

STATION/POSITION TIME  TEMP    WIND        PRES    WAVE
                       AIR SEA DIR/SP/G            HT/PER
                 (UTC) (F)     (DEG/KT/KT) (MB)    (FT/S)
CHAMBERS ISLAND  1640   59     160/  8/ 14 1005.8R
N MID LAKE BUOY  1550   43 37  120/  6/  8 1008.0F   2/ 3
NORTHPORT PIER   1640   53     150/ 11/ 19 1006.1S
KEWAUNEE LAKESHO 1630   46     170/ 10/ 11 1006.0R
SHEBOYGAN LAKESH 1600   45     170/  6/  7 1006.1S
PORT WASHINGTON  1640   48     130/  5/  6 1006.4F
MILWAUKEE LAKESH 1630   47     140/ 17/ 18   N/A
S MID LAKE BUOY  1550   46 41  130/ 10/ 12 1006.9F   1/ 3
KENOSHA   LAKESH 1600   49     160/ 10/ 11 1005.8
$$

TC  - TEMPERATURE IN CELSIUS
VSB - VISIBILITY IN STATUTE MILES
WCI - WIND CHILL INDEX
HX  - HEAT INDEX





USA.gov is the U.S. government's official web portal to all federal, state and local government web resources and services.